Regional Weather Roundup
Issued by NWS Upton, NY

Home | Current Version | Previous Version | Text Only | Print | Product List | Glossary On
Versions: 1 2 3 4 5 6 7 8 9 10 11 12 13 14 15 16 17 18 19 20 21 22 23 24 25 26 27 28 29
000
ASUS41 KOKX 250605
RWROKX

REGIONAL WEATHER ROUNDUP
NATIONAL WEATHER SERVICE NEW YORK NY
200 AM EDT FRI APR 25 2014

NOTE: "FAIR" INDICATES FEW OR NO CLOUDS BELOW 12,000 FEET WITH NO
SIGNIFICANT WEATHER AND/OR OBSTRUCTIONS TO VISIBILITY.

NYZ071-072-176-178-NJZ106-104-250700-
NEW YORK CITY METRO AREA


CITY           SKY/WX    TMP DP  RH WIND       PRES   REMARKS
CENTRAL PARK   FAIR      49  17  28 VRB5      30.04F
LAGUARDIA APRT FAIR      48  21  34 NW12      30.01S
KENNEDY INTL   FAIR      49  16  26 NW13      30.02F
NEWARK/LIBERTY FAIR      48  17  29 N9        30.03S
TETERBORO      FAIR      47  18  31 NW8       30.01F
$$

NYZ177-179-078>081-250700-
LONG ISLAND NEW YORK

CITY           SKY/WX    TMP DP  RH WIND       PRES   REMARKS
FARMINGDALE    FAIR      45  19  35 NW3       30.01S
ISLIP          FAIR      47  21  35 N7        29.99S
SHIRLEY        FAIR      46  21  37 NW10      29.99F
WESTHAMPTON    FAIR      45  22  40 NW8       29.99F
MONTAUK POINT    N/A     48  32  53 NW7       29.96F
$$

NYZ052-065-067-250700-
HUDSON VALLEY

CITY           SKY/WX    TMP DP  RH WIND       PRES   REMARKS
WHITE PLAINS   FAIR      44  18  35 NW12      29.99F
NEWBURGH       CLEAR     39  21  48 W12       30.03S WCI  32
MONTGOMERY     FAIR      42  19  39 NW8       30.01F
POUGHKEEPSIE   FAIR      36  26  67 CALM      30.01S
ALBANY         FAIR      40  20  44 CALM      30.02F
$$

NJZ001-105-106-008-010-013-015-019>022-104-250700-
NEW JERSEY

CITY           SKY/WX    TMP DP  RH WIND       PRES   REMARKS
NEWARK/LIBERTY FAIR      48  17  29 N9        30.03S
TETERBORO      FAIR      47  18  31 NW8       30.01F
CALDWELL       FAIR      46  17  31 NW5       30.04S
MORRISTOWN     FAIR      48  16  27 NW5       30.04S
SOMERVILLE     FAIR      47  17  30 N7        30.02F
LINDEN         FAIR      49  19  30 NW5       30.05S
SUSSEX         FAIR      41  20  43 CALM      30.03S
ANDOVER          N/A     38  25  59 CALM      30.04S
TRENTON        FAIR      47  16  29 N8        30.02S
MILLVILLE      FAIR      35  25  66 CALM      30.02F
ATLANTIC CITY  FAIR      38  19  46 NE7       30.02S WCI  33
WRIGHTSTOWN    FAIR      44  15  31 N8        30.00F
TOMS RIVER     FAIR      46  18  31 N5        30.01F
BELMAR         FAIR      46  18  31 NW5       30.03R
$$

PAZ047>061-062-071-250700-
EASTERN PENNSYLVANIA

CITY           SKY/WX    TMP DP  RH WIND       PRES   REMARKS
PHILADELPHIA   FAIR      50  12  21 N10       30.03F
ALLENTOWN      FAIR      41  18  39 N6        30.03F
SCRANTON       FAIR      39  18  42 VRB5      30.03F
$$

CTZ002-004>006-009-010-012-RIZ004-006-007-MAZ004-011-015-250700-
SOUTHERN NEW ENGLAND
 IN CT

CITY           SKY/WX    TMP DP  RH WIND       PRES   REMARKS
BRADLEY INTL   FAIR      42  17  36 NW8       29.96F
HARTFORD       FAIR      46  15  28 NW3       29.97F
DANBURY        FAIR      44  18  35 NW3       30.01S
WTRBRY/OXFORD  FAIR      43  18  36 NW3       30.01R
BRIDGEPORT     FAIR      47  20  34 NW8       30.00S
MERIDEN        FAIR      44  19  36 NW9       29.97F
NEW HAVEN      FAIR      47  21  35 NW5       29.98F
CHESTER        FAIR      45  18  33 NW7       29.97S
GROTON         FAIR      46  24  42 NW9       29.94F
WILLIMANTIC    FAIR      46  22  38 VRB3      29.95F

 IN RI

CITY           SKY/WX    TMP DP  RH WIND       PRES   REMARKS
PROVIDENCE     FAIR      47  23  38 NW9       29.94S
BLOCK ISLAND   FAIR      46  27  46 NW12      29.94S
WESTERLY       FAIR      47  23  38 NW5       29.95F

 IN MA

CITY           SKY/WX    TMP DP  RH WIND       PRES   REMARKS
BOSTON         FAIR      47  26  44 NW8       29.92F
WORCESTER      FAIR      41  23  48 NW12      29.93S
WESTFIELD      FAIR      44  17  33 VRB3      29.96F
PROVINCETOWN   CLOUDY    45  34  65 MISG      29.90F
NANTUCKET      FAIR      47  32  56 N18       29.87F
$$

ANZ330-335-338-340-345-350-353-355-250700-
COASTAL MARINE OBSERVATIONS


STATION/POSITION TIME  SKY/WX   TEMP    WIND        PRES    VSBY  WAVE
                                AIR SEA DIR/SP/G                  HT/PER
                 (UTC)          (F)     (DEG/KT/KT) (MB)    (MI)  (FT/S)
NY HARB ENTRANCE 0600            48 45  VRB  8/ 10  1016.3
4S FIRE IS       0500               45                N/A           1/10
23SW MTP         0600            46 43  310/ 10/ 10 1014.1          2/ 5
HUDSON CANYON    0500            47 45  340/ 10/ 12 1015.2          3/ 5
EXECUTION ROCKS  0600            48 46  320/  8/ 10   N/A
WESTERN LI SOUND 0600            47     290/  6/  8   N/A           2/16
CENTRAL LI SOUND 0500            46 43  300/ 10/ 12   N/A           1/ 3
EASTERN LI SOUND NOT AVBL
ROBBINS REEF     0600            49     330/ 10/ 12   N/A
$$


>>>>>>>>>>>>>>>>>>>>>>>>>>>> KEY <<<<<<<<<<<<<<<<<<<<<<<<<<<
>                                                          <
>     SKY/WX - SKY CONDITION/PRESENT WEATHER               <
>     TMP    - TEMPERATURE IN FAHRENHEIT                   <
>     DP     - DEWPOINT IN FAHRENHEIT                      <
>     RH     - RELATIVE HUMIDITY IN PERCENT                <
>     WIND   - DIRECTION AND SPEED IN MPH                  <
>     PRES   - MEAN SEA LEVEL PRESSURE IN INCHES OF HG     <
>     WCI    - WIND CHILL INDEX                            <
>     VSB    - VISIBILITY IN MILES                         <
>     HX     - HEAT INDEX                                  <
>     TC     - TEMPERATURE IN CELSIUS                      <
>     VRB    - VARIABLE WIND DIRECTION                     <
>                                                          <
>>>>>>>>>>>>>>>>>>>>>>>>>>>> KEY <<<<<<<<<<<<<<<<<<<<<<<<<<<





USA.gov is the U.S. government's official web portal to all federal, state and local government web resources and services.